Watford City, ND

3:22 AM CDT on April 23, 2017 (GMT -0500)
Watford City

Weather History for KS25 - February, 2014

Change the Weather History Date:

Sunday, February 9, 2014

  Actual Average (KISN) Record (KISN)
Temperature  
Mean Temperature -4 °F -  
Max Temperature 3 °F 25 °F 49 °F (1984)
Min Temperature -11 °F 4 °F -36 °F (1900)
Degree Days  
Heating Degree Days 69    
Moisture  
Dew Point -11 °F    
Average Humidity 71    
Maximum Humidity 84    
Minimum Humidity 56    
Precipitation  
Precipitation 0.00 in - - ()
Sea Level Pressure  
Sea Level Pressure 30.30 in    
Wind  
Wind Speed 5 mph (NW)    
Max Wind Speed 10 mph    
Max Gust Speed -    
Visibility 10 miles    
Events Snow    
Averages and records for this station are not official NWS values.
T = Trace of Precipitation, MM = Missing Value Source: NWS Daily Summary

Daily Weather History Graph

Daily Weather History Graph

Search for Another Location

Airport or City:

Trip Planner

Search our weather history database for the weather conditions in past years. The results will help you decide how hot, cold, wet, or windy it might be!

Date:

Astronomy

Feb. 09, 2014 Rise Set
Actual Time 8:08 AM CST 6:06 PM CST
Civil Twilight 7:36 AM CST 6:38 PM CST
Nautical Twilight 6:59 AM CST 7:15 PM CST
Astronomical Twilight 6:23 AM CST 7:51 PM CST
Moon 1:40 PM CST (2/9) 4:23 AM CST (2/9)
Length of Visible Light 11h 02m
Length of Day
9h 58m
Waxing Gibbous, 77% of the Moon is Illuminated
Feb 9
Waxing Gibbous
Feb 14
Full
Feb 22
Last Quarter
Mar 1
New
Mar 8
First Quarter

Hourly Weather History & Observations

Time (CST) Temp. Windchill Dew Point Humidity Pressure Visibility Wind Dir Wind Speed Gust Speed Precip Events Conditions
12:15 AM -2.2 °F -12.5 °F -7.6 °F 78% 30.29 in 10.0 mi NW 4.6 mph - N/A   Clear
12:35 AM -2.2 °F -15.6 °F -7.6 °F 78% 30.29 in 10.0 mi NW 6.9 mph - N/A   Clear
12:55 AM -4.0 °F -14.6 °F -9.4 °F 78% 30.29 in 10.0 mi WNW 4.6 mph - N/A   Clear
1:15 AM -4.0 °F - -9.4 °F 78% 30.29 in 10.0 mi Calm Calm - N/A   Clear
1:35 AM -4.0 °F -12.4 °F -9.4 °F 78% 30.28 in 10.0 mi NW 3.5 mph - N/A   Clear
1:55 AM -4.0 °F -12.4 °F -9.4 °F 78% 30.29 in 10.0 mi WNW 3.5 mph - N/A   Clear
2:15 AM -5.8 °F -19.9 °F -11.2 °F 77% 30.29 in 10.0 mi West 6.9 mph - N/A   Clear
2:35 AM -4.0 °F -19.0 °F -9.4 °F 78% 30.30 in 10.0 mi West 8.1 mph - N/A   Clear
2:55 AM -5.8 °F -19.9 °F -11.2 °F 77% 30.29 in 10.0 mi West 6.9 mph - N/A   Clear
3:15 AM -5.8 °F -21.2 °F -11.2 °F 77% 30.28 in 10.0 mi West 8.1 mph - N/A   Partly Cloudy
3:35 AM -5.8 °F -19.9 °F -11.2 °F 77% 30.28 in 10.0 mi West 6.9 mph - N/A   Scattered Clouds
3:55 AM -4.0 °F -16.3 °F -11.2 °F 71% 30.28 in 10.0 mi West 5.8 mph - N/A   Mostly Cloudy
4:15 AM -5.8 °F -18.4 °F -11.2 °F 77% 30.28 in 10.0 mi West 5.8 mph - N/A   Mostly Cloudy
4:35 AM -5.8 °F -16.7 °F -11.2 °F 77% 30.28 in 10.0 mi WSW 4.6 mph - N/A   Mostly Cloudy
4:55 AM -5.8 °F -18.4 °F -11.2 °F 77% 30.28 in 10.0 mi WSW 5.8 mph - N/A   Overcast
5:15 AM -7.6 °F -18.8 °F - N/A% 30.28 in 10.0 mi West 4.6 mph - N/A   Mostly Cloudy
5:35 AM -4.0 °F -14.6 °F -11.2 °F 71% 30.28 in 10.0 mi WNW 4.6 mph - N/A   Overcast
5:55 AM -4.0 °F -17.8 °F -9.4 °F 78% 30.28 in 10.0 mi NW 6.9 mph - N/A   Overcast
6:15 AM -4.0 °F -17.8 °F -9.4 °F 78% 30.28 in 10.0 mi NW 6.9 mph - N/A   Overcast
6:35 AM -4.0 °F -17.8 °F -11.2 °F 71% 30.28 in 10.0 mi NW 6.9 mph - N/A   Overcast
6:55 AM -5.8 °F -18.4 °F -11.2 °F 77% 30.28 in 10.0 mi NW 5.8 mph - N/A   Overcast
7:15 AM -7.6 °F -16.5 °F -13.0 °F 77% 30.29 in 10.0 mi North 3.5 mph - N/A   Mostly Cloudy
7:35 AM -7.6 °F -16.5 °F -13.0 °F 77% 30.30 in 10.0 mi NNW 3.5 mph - N/A   Partly Cloudy
7:55 AM -7.6 °F - -13.0 °F 77% 30.30 in 10.0 mi Calm Calm - N/A   Mostly Cloudy
8:15 AM -9.4 °F - -13.0 °F 84% 30.30 in 10.0 mi Calm Calm - N/A   Mostly Cloudy
8:35 AM -7.6 °F -16.5 °F -13.0 °F 77% 30.31 in 10.0 mi WNW 3.5 mph - N/A   Mostly Cloudy
8:55 AM -7.6 °F -18.8 °F -13.0 °F 77% 30.32 in 10.0 mi West 4.6 mph - N/A   Partly Cloudy
9:15 AM -7.6 °F -20.6 °F - N/A% 30.33 in 10.0 mi West 5.8 mph - N/A   Mostly Cloudy
9:35 AM -5.8 °F -18.4 °F -11.2 °F 77% 30.33 in 10.0 mi West 5.8 mph - N/A   Overcast
9:55 AM -5.8 °F -18.4 °F -11.2 °F 77% 30.34 in 9.0 mi West 5.8 mph - N/A Snow Light Snow
10:15 AM -4.0 °F -19.0 °F -9.4 °F 78% 30.34 in 9.0 mi NW 8.1 mph - N/A Snow Light Snow
10:35 AM -2.2 °F -15.6 °F -9.4 °F 71% 30.35 in 10.0 mi NW 6.9 mph - N/A   Partly Cloudy
10:55 AM -2.2 °F -18.9 °F -9.4 °F 71% 30.35 in 10.0 mi NW 10.4 mph - N/A   Partly Cloudy
11:35 AM -2.2 °F -18.0 °F -9.4 °F 71% 30.36 in 3.0 mi NNW 9.2 mph - N/A Snow Light Snow
11:55 AM -2.2 °F -16.8 °F -11.2 °F 66% 30.35 in 7.0 mi NNW 8.1 mph - N/A   Scattered Clouds
12:15 PM -0.4 °F -15.7 °F -11.2 °F 60% 30.33 in 10.0 mi NW 9.2 mph - N/A   Scattered Clouds
12:35 PM -0.4 °F -15.7 °F -9.4 °F 66% 30.32 in 9.0 mi NNW 9.2 mph - N/A   Partly Cloudy
12:55 PM -0.4 °F -12.0 °F -9.4 °F 66% 30.32 in 9.0 mi WNW 5.8 mph - N/A   Clear
1:15 PM -0.4 °F -13.4 °F -11.2 °F 60% 30.31 in 10.0 mi NNW 6.9 mph - N/A   Clear
1:35 PM 1.4 °F -11.3 °F -9.4 °F 61% 30.30 in 10.0 mi NW 6.9 mph - N/A   Clear
1:55 PM 1.4 °F -11.3 °F -9.4 °F 61% 30.30 in 10.0 mi NW 6.9 mph - N/A   Clear
2:15 PM 1.4 °F -13.5 °F -9.4 °F 61% 30.30 in 10.0 mi NW 9.2 mph - N/A   Clear
2:35 PM 1.4 °F -12.5 °F -9.4 °F 61% 30.29 in 10.0 mi WNW 8.1 mph - N/A   Clear
2:55 PM 1.4 °F -9.9 °F -9.4 °F 61% 30.29 in 10.0 mi NNW 5.8 mph - N/A   Clear
3:15 PM 3.2 °F -7.8 °F -9.4 °F 56% 30.29 in 10.0 mi NW 5.8 mph - N/A   Clear
3:35 PM 3.2 °F -7.8 °F -9.4 °F 56% 30.29 in 10.0 mi NW 5.8 mph - N/A   Clear
3:55 PM 3.2 °F -9.1 °F -9.4 °F 56% 30.30 in 10.0 mi WNW 6.9 mph - N/A   Clear
4:15 PM 3.2 °F -6.2 °F -9.4 °F 56% 30.30 in 10.0 mi WNW 4.6 mph - N/A   Clear
4:35 PM 3.2 °F -9.1 °F -9.4 °F 56% 30.30 in 10.0 mi WNW 6.9 mph - N/A   Clear
4:55 PM 3.2 °F -7.8 °F -9.4 °F 56% 30.30 in 10.0 mi NW 5.8 mph - N/A   Clear
5:15 PM 3.2 °F -9.1 °F -9.4 °F 56% 30.30 in 10.0 mi NNW 6.9 mph - N/A   Clear
5:35 PM 1.4 °F -11.3 °F -9.4 °F 61% 30.30 in 10.0 mi NW 6.9 mph - N/A   Clear
5:55 PM 1.4 °F -9.9 °F -9.4 °F 61% 30.30 in 10.0 mi NNW 5.8 mph - N/A   Clear
6:15 PM -0.4 °F -12.0 °F -9.4 °F 66% 30.31 in 10.0 mi North 5.8 mph - N/A   Clear
6:35 PM -2.2 °F -10.4 °F -11.2 °F 66% 30.31 in 10.0 mi North 3.5 mph - N/A   Clear
6:55 PM -2.2 °F - -11.2 °F 66% 30.31 in 10.0 mi Calm Calm - N/A   Clear
7:15 PM -2.2 °F - -11.2 °F 66% 30.31 in 10.0 mi Calm Calm - N/A   Clear
7:35 PM -2.2 °F - -11.2 °F 66% 30.31 in 10.0 mi Calm Calm - N/A   Clear
7:55 PM -4.0 °F -12.4 °F -11.2 °F 71% 30.31 in 10.0 mi NNE 3.5 mph - N/A   Clear
8:15 PM -4.0 °F - -11.2 °F 71% 30.31 in 10.0 mi Calm Calm - N/A   Clear
8:35 PM -4.0 °F - -11.2 °F 71% 30.31 in 10.0 mi Calm Calm - N/A   Clear
8:55 PM -5.8 °F - -11.2 °F 77% 30.31 in 10.0 mi Calm Calm - N/A   Clear
9:15 PM -9.4 °F - -14.8 °F 77% 30.31 in 10.0 mi Calm Calm - N/A   Clear
9:35 PM -9.4 °F - -13.0 °F 84% 30.31 in 10.0 mi Calm Calm - N/A   Clear
9:55 PM -7.6 °F - -13.0 °F 77% 30.31 in 10.0 mi Calm Calm - N/A   Clear
10:15 PM -9.4 °F - -13.0 °F 84% 30.31 in 10.0 mi Calm Calm - N/A   Clear
10:35 PM -9.4 °F - -14.8 °F 77% 30.31 in 10.0 mi Calm Calm - N/A   Clear
10:55 PM -11.2 °F -20.6 °F -16.6 °F 77% 30.30 in 10.0 mi ENE 3.5 mph - N/A   Clear
11:15 PM -9.4 °F - -14.8 °F 77% 30.30 in 10.0 mi Calm Calm - N/A   Clear
11:35 PM -9.4 °F - -14.8 °F 77% 30.29 in 10.0 mi Calm Calm - N/A   Clear
11:55 PM -9.4 °F - -14.8 °F 77% 30.29 in 10.0 mi Calm Calm - N/A   Clear